Probability
0 0 0 0 0 0 0 0 0 0 0 0 0 0 0 0 0 0 0 0 0 0 0 0 0 0 0 3 3 6 13 13 13 16 19 19 16 16
0 0 0 0 0 0 0 0 0 0 0 0 0 0 0 0 0 0 0 0 0 0 0 0 0 0 0 0 0 0 0 0 3 3 3 3 6 10
0 0 0 0 0 0 0 0 0 0 0 0 0 0 0 0 0 0 0 0 0 0 0 0 0 0 0 0 0 0 0 0 0 0 0 0 0 3
0 0 0 0 0 0 0 0 0 0 0 0 0 0 0 0 0 0 0 0 0 0 0 0 0 0 0 0 0 0 0 0 0 0 0 0 0 3
0 0 0 0 0 0 0 0 0 0 0 0 0 0 0 0 0 0 0 0 0 0 0 0 0 0 0 0 0 0 0 0 0 0 0 0 0 0
0 0 0 0 0 0 0 0 0 0 0 0 0 0 0 0 0 0 0 0 0 0 0 0 0 0 0 0 0 0 0 0 0 0 0 0 0 0
0 0 0 0 0 0 0 0 0 0 0 0 0 0 0 0 0 0 0 0 0 0 0 0 0 0 0 0 0 0 0 0 0 0 0 0 0 0
0 0 0 0 0 0 0 0 0 0 0 0 0 0 0 0 0 0 0 0 0 0 0 0 0 0 0 0 0 0 0 0 0 0 0 0 0 0
0 0 0 0 0 0 0 0 0 0 0 0 0 0 0 0 0 0 0 0 0 0 0 0 0 0 0 0 0 0 0 0 0 0 0 0 0 0
0 0 0 0 0 0 0 0 0 0 0 0 0 0 0 0 0 0 0 0 0 0 0 0 0 0 0 0 0 0 0 0 0 0 0 0 0 0
0 0 0 0 0 0 0 0 0 0 0 0 0 0 0 0 0 0 0 0 0 0 0 0 0 0 0 0 0 0 0 0 0 0 0 0 0 0
0 0 0 0 0 0 0 0 0 0 0 0 0 0 0 0 0 0 0 0 0 0 0 0 0 0 0 0 0 0 0 0 0 0 0 0 0 0
0 0 0 0 0 0 0 0 0 0 0 0 0 0 0 0 0 0 0 0 0 0 0 0 0 0 0 0 0 0 0 0 0 0 0 0 0 0
0 0 0 0 0 0 0 0 0 0 0 0 0 0 0 0 0 0 0 0 0 0 0 0 0 0 0 0 0 0 0 0 0 0 0 0 0 0
0 0 0 0 0 0 0 0 0 0 0 0 0 0 0 0 0 0 0 0 0 0 0 0 0 0 0 0 0 0 0 0 0 0 0 0 0 0
0 0 0 0 0 0 0 0 0 0 0 0 0 0 0 0 0 0 0 0 0 0 0 0 0 0 0 0 0 0 0 0 0 0 0 0 0 0
0 0 0 0 0 0 0 0 0 0 0 0 0 0 0 0 0 0 0 0 0 0 0 0 0 0 0 0 0 0 0 0 0 0 0 0 0 0
0 0 0 0 0 0 0 0 0 0 0 0 0 0 0 0 0 0 0 0 0 0 0 0 0 0 0 0 0 0 0 0 0 0 0 0 0 0
0 0 0 0 0 0 0 0 0 0 0 0 0 0 0 0 0 0 0 0 0 0 0 0 0 0 0 0 0 0 0 0 0 0 0 0 0 0
0 0 0 0 0 0 0 0 0 0 0 0 0 0 0 0 0 0 0 0 0 0 0 0 0 0 0 0 0 0 0 0 0 0 0 0 0 0
0 0 0 0 0 0 0 0 0 0 0 0 0 0 0 0 0 0 0 0 0 0 0 0 0 0 0 0 0 0 0 0 0 0 0 0 0 0
0 0 0 0 0 0 0 0 0 0 0 0 0 0 0 0 0 0 0 0 0 0 0 0 0 0 0 0 0 0 0 0 0 0 0 0 0 0
0 0 0 0 0 0 0 0 0 0 0 0 0 0 0 0 0 0 0 0 0 0 0 0 0 0 0 0 0 0 0 0 0 0 0 0 0 0
Height
5825 5824 5823 5821 5821 5820 5820 5820 5820 5820 5821 5821 5822 5823 5824 5825 5827 5828 5830 5832 5834 5836 5838 5840 5843 5845 5848 5850 5852 5854 5857 5859 5862 5864 5866 5867 5869 5871
5824 5823 5822 5821 5820 5819 5819 5818 5818 5819 5819 5819 5819 5820 5821 5822 5823 5824 5825 5827 5829 5831 5833 5835 5837 5840 5842 5845 5847 5849 5851 5854 5856 5858 5860 5862 5864 5865
5823 5822 5821 5819 5819 5818 5817 5817 5816 5816 5816 5817 5816 5817 5818 5818 5819 5820 5821 5822 5824 5826 5828 5830 5832 5834 5836 5838 5840 5842 5845 5847 5850 5852 5854 5856 5858 5859
5822 5820 5819 5818 5817 5816 5815 5814 5814 5814 5814 5814 5813 5813 5814 5814 5815 5815 5816 5817 5819 5820 5822 5824 5826 5828 5830 5832 5834 5836 5838 5841 5843 5845 5847 5849 5851 5853
5820 5818 5817 5815 5814 5813 5812 5811 5811 5810 5810 5810 5810 5809 5809 5810 5810 5810 5811 5812 5813 5814 5816 5817 5819 5821 5823 5825 5827 5829 5832 5834 5836 5838 5840 5842 5844 5846
5817 5815 5813 5812 5811 5810 5808 5807 5807 5806 5806 5805 5805 5805 5805 5804 5804 5805 5805 5806 5807 5808 5809 5811 5812 5814 5816 5818 5820 5822 5824 5827 5829 5831 5832 5834 5836 5838
5813 5811 5809 5807 5806 5805 5804 5803 5802 5801 5801 5800 5800 5799 5799 5799 5799 5799 5799 5800 5801 5801 5803 5804 5805 5807 5808 5810 5812 5814 5816 5818 5821 5822 5824 5826 5828 5830
5808 5806 5804 5802 5801 5799 5798 5797 5796 5795 5795 5794 5794 5793 5793 5792 5792 5791 5792 5792 5793 5794 5795 5796 5797 5799 5801 5803 5804 5806 5808 5810 5812 5814 5816 5818 5820 5821
5801 5799 5797 5796 5794 5793 5792 5790 5789 5788 5788 5787 5787 5786 5786 5785 5784 5784 5784 5784 5785 5786 5786 5788 5789 5791 5792 5794 5796 5797 5799 5801 5803 5805 5807 5809 5811 5812
5794 5792 5790 5788 5786 5785 5784 5783 5782 5781 5780 5779 5779 5778 5778 5777 5776 5776 5776 5776 5777 5777 5778 5780 5781 5782 5784 5785 5787 5788 5790 5792 5794 5796 5797 5799 5801 5803
5786 5784 5782 5780 5778 5776 5775 5774 5773 5773 5772 5771 5771 5770 5769 5769 5768 5768 5768 5768 5768 5769 5769 5770 5772 5773 5774 5776 5778 5779 5781 5783 5784 5786 5788 5789 5791 5792
5778 5775 5773 5771 5769 5767 5766 5765 5764 5763 5762 5762 5762 5761 5760 5760 5759 5759 5759 5758 5759 5759 5759 5760 5761 5762 5765 5766 5768 5769 5771 5773 5774 5776 5777 5779 5780 5782
5768 5766 5764 5761 5759 5757 5755 5754 5753 5752 5752 5751 5751 5751 5750 5749 5749 5749 5748 5748 5748 5748 5749 5749 5750 5751 5753 5756 5757 5759 5760 5762 5763 5764 5766 5767 5769 5771
5757 5755 5753 5750 5748 5746 5744 5742 5741 5740 5740 5739 5739 5739 5738 5738 5737 5737 5736 5736 5736 5736 5736 5737 5738 5739 5741 5743 5746 5747 5749 5750 5752 5753 5754 5756 5758 5759
5745 5743 5740 5738 5735 5733 5731 5729 5728 5727 5726 5726 5726 5726 5725 5724 5724 5724 5723 5723 5723 5724 5724 5724 5725 5726 5728 5731 5733 5735 5737 5738 5739 5741 5742 5744 5746 5747
5731 5729 5726 5724 5721 5719 5717 5715 5713 5712 5711 5711 5711 5711 5711 5710 5710 5710 5710 5710 5710 5711 5711 5711 5712 5713 5715 5717 5719 5721 5723 5725 5727 5728 5730 5731 5733 5735
5716 5714 5711 5708 5706 5703 5701 5699 5697 5696 5695 5694 5695 5695 5695 5695 5695 5695 5695 5695 5696 5697 5697 5697 5697 5699 5700 5702 5705 5708 5710 5712 5713 5715 5717 5719 5720 5722
5699 5696 5694 5691 5689 5686 5684 5682 5680 5678 5677 5676 5677 5677 5677 5678 5679 5679 5679 5679 5680 5681 5682 5682 5683 5684 5686 5688 5691 5693 5695 5698 5699 5701 5703 5705 5707 5709
5681 5678 5675 5673 5670 5668 5665 5663 5662 5660 5658 5657 5657 5657 5658 5659 5660 5661 5661 5662 5663 5664 5665 5666 5667 5668 5670 5673 5676 5678 5680 5682 5684 5687 5689 5691 5694 5696
5662 5659 5657 5654 5651 5649 5646 5644 5642 5640 5638 5637 5637 5637 5638 5639 5640 5641 5643 5644 5645 5646 5647 5649 5650 5652 5654 5657 5660 5663 5664 5667 5669 5672 5675 5677 5680 5682
5644 5641 5637 5634 5632 5629 5627 5625 5622 5620 5618 5617 5616 5616 5617 5618 5620 5622 5623 5625 5626 5627 5629 5632 5633 5635 5636 5639 5642 5646 5649 5651 5654 5656 5659 5662 5665 5667
5625 5621 5618 5614 5612 5609 5606 5604 5602 5600 5598 5597 5596 5596 5596 5597 5599 5601 5603 5605 5607 5609 5611 5614 5615 5616 5619 5622 5625 5629 5633 5635 5638 5641 5644 5647 5650 5653
5605 5601 5598 5594 5591 5588 5586 5584 5582 5581 5579 5577 5576 5577 5577 5578 5579 5581 5584 5586 5588 5590 5592 5595 5597 5599 5602 5605 5609 5613 5616 5620 5623 5626 5630 5632 5635 5639
Wind_Speed
10 10 9 8 7 7 7 6 7 8 9 11 12 13 14 16 17 18 19 20 20 21 22 23 25 25 26 26 26 26 26 26 25 26 26 26 26 26
11 10 10 9 9 8 9 9 9 9 10 11 12 13 15 16 17 18 19 20 21 22 23 24 25 26 26 27 27 28 28 28 27 27 27 28 28 27
12 11 11 10 10 10 10 10 10 10 11 11 13 14 15 16 18 18 18 20 21 22 23 24 26 27 27 28 29 29 28 28 28 28 28 27 28 28
13 12 12 12 12 12 12 12 12 12 12 12 13 14 16 17 18 19 20 20 21 23 24 25 26 27 28 29 29 29 28 28 28 28 29 29 29 29
14 14 14 14 14 14 14 14 14 14 14 14 15 16 17 18 19 20 21 21 22 23 24 25 26 27 28 28 29 29 29 30 30 30 30 30 30 31
17 17 17 16 16 16 16 16 17 17 17 17 17 18 18 19 21 21 22 23 23 24 25 26 27 28 29 29 30 30 31 31 32 32 31 32 32 31
19 19 19 19 19 18 18 18 18 19 19 19 20 20 20 21 22 23 24 25 25 26 27 27 28 29 30 31 31 31 32 32 33 32 32 33 33 33
22 21 21 21 21 21 20 20 20 21 21 21 21 22 22 23 24 24 25 26 26 27 28 28 30 30 31 31 32 32 33 33 33 34 33 33 33 33
24 24 24 24 24 24 23 23 23 23 23 23 23 23 23 24 24 25 25 26 27 28 29 29 30 30 31 32 32 31 32 33 33 33 34 33 33 33
26 26 26 26 26 26 25 25 25 25 25 25 25 25 25 25 25 26 26 27 27 29 30 29 30 31 31 32 33 33 33 33 33 34 35 36 35 35
28 28 28 28 28 28 28 28 27 28 28 28 28 28 27 28 28 28 28 28 28 29 31 31 32 33 33 33 33 34 34 35 35 35 35 36 37 37
31 31 31 31 31 31 31 31 31 31 31 31 32 31 31 31 31 31 31 31 31 32 33 33 34 35 35 35 35 35 35 36 37 36 36 37 37 37
34 34 34 34 34 35 35 34 34 34 34 34 35 35 35 35 35 35 35 35 35 35 35 36 36 37 37 37 37 37 37 37 38 39 38 38 38 38
37 37 38 38 38 38 38 38 38 38 37 38 37 38 38 39 39 39 38 38 37 37 37 38 38 38 39 39 39 39 39 38 38 39 39 39 39 39
40 41 41 41 41 41 42 42 42 41 41 41 40 41 41 41 41 41 41 40 39 39 39 40 40 40 40 41 41 41 41 40 40 40 40 41 41 41
44 44 44 45 45 45 45 45 45 45 44 44 43 43 44 44 43 43 43 43 42 41 42 43 43 42 42 42 43 43 43 41 41 42 42 42 41 41
48 48 48 48 48 49 49 49 48 48 48 47 47 47 47 47 46 46 46 46 45 44 44 44 44 44 44 44 44 44 43 43 42 42 42 42 42 42
51 51 51 51 52 51 51 51 51 51 51 50 50 50 50 50 49 49 49 48 48 47 46 46 46 46 46 46 46 45 45 45 44 43 43 42 42 42
53 53 53 53 53 53 52 53 53 53 53 53 53 52 52 52 52 52 51 51 50 50 49 49 49 48 48 48 47 47 46 46 45 44 44 43 42 42
54 54 54 55 55 54 54 55 54 54 54 54 54 53 53 54 54 53 53 53 52 52 51 51 50 49 48 49 48 48 48 47 46 45 44 43 43 42
56 56 57 57 56 56 56 56 56 55 55 54 54 54 54 54 54 54 53 53 53 52 51 51 50 49 49 50 49 48 48 47 47 46 45 45 44 43
58 58 58 58 57 57 57 56 55 54 54 54 54 53 52 53 53 53 53 53 52 52 51 51 49 49 49 49 48 48 47 47 46 45 45 45 45 45
57 57 57 57 56 55 55 54 52 51 51 51 51 51 51 50 51 51 52 51 51 50 49 49 48 48 48 47 47 46 46 46 45 44 43 43 43 42
Wind_Direction
348 344 340 332 322 311 301 290 277 265 257 255 252 247 244 240 239 239 240 239 236 236 235 234 233 234 235 234 234 234 235 235 237 238 239 239 240 241
342 340 336 329 321 312 302 295 286 278 270 262 257 253 248 246 244 245 243 244 241 239 237 237 236 235 237 237 237 238 237 237 239 239 240 241 241 243
337 332 329 324 317 310 303 296 290 284 279 271 264 259 254 252 250 249 249 248 245 243 241 241 239 238 240 241 241 240 239 241 241 241 243 245 246 247
329 327 324 319 315 309 302 298 293 289 284 277 270 265 262 259 257 253 253 252 248 246 246 244 242 241 242 241 240 239 239 242 244 244 245 246 248 250
321 319 317 314 311 307 301 296 293 290 287 281 275 271 267 264 262 257 256 254 251 250 248 246 244 242 242 242 243 242 241 244 246 247 248 249 251 252
313 313 311 309 307 304 300 294 291 289 287 285 280 275 272 268 265 262 258 256 255 254 251 248 247 245 245 245 245 246 244 245 248 249 250 251 251 252
309 307 305 305 303 301 299 294 291 288 286 284 281 277 274 272 269 266 261 259 258 256 255 252 249 248 247 246 246 247 246 246 248 249 250 251 253 253
305 303 302 301 300 298 296 293 290 287 286 284 282 279 277 275 272 268 264 262 260 258 256 254 252 249 248 248 248 248 248 248 249 250 252 253 253 253
301 300 299 298 296 294 292 289 287 286 284 283 283 282 280 277 274 270 267 265 262 260 258 256 254 253 251 249 249 250 249 249 250 251 252 254 254 255
299 299 298 296 294 292 290 288 285 283 282 281 281 280 279 277 275 273 270 268 265 262 260 258 256 254 253 252 251 250 251 252 253 253 254 255 255 256
298 297 296 295 293 291 289 287 284 281 280 279 278 278 276 275 274 273 271 269 267 264 262 260 257 256 254 254 253 252 252 253 253 254 255 255 255 257
295 294 294 294 292 291 289 286 284 281 279 278 277 276 275 274 273 273 271 269 268 265 263 260 258 257 255 255 254 254 255 255 254 255 256 256 256 257
293 292 292 292 291 290 288 286 283 281 279 278 277 276 274 274 273 273 271 270 269 266 262 260 258 257 257 255 254 255 257 257 256 256 256 257 257 257
290 290 291 290 289 288 287 285 283 281 279 278 277 276 275 274 273 273 272 271 269 267 264 262 261 258 257 256 255 256 256 257 258 258 257 257 257 257
290 289 289 289 288 287 286 285 283 281 279 278 276 275 274 273 272 272 271 270 270 269 266 263 262 260 258 257 256 256 256 257 258 258 258 257 257 257
289 289 289 288 288 287 286 284 282 280 279 277 275 274 274 273 271 270 270 270 270 269 267 266 263 261 260 259 258 257 257 257 258 258 258 258 257 257
289 288 288 288 287 286 285 283 281 279 278 277 274 273 272 271 270 269 269 269 269 268 267 265 263 261 261 260 258 257 258 259 259 259 258 257 257 256
288 288 287 287 286 285 284 282 280 278 278 276 273 272 270 269 268 267 268 268 267 267 266 263 261 261 261 261 260 259 258 258 258 258 258 257 257 257
288 288 287 287 286 284 282 281 280 279 278 275 273 271 270 268 267 266 266 267 266 266 265 262 261 261 261 260 259 259 258 257 257 257 257 257 257 256
289 288 287 287 286 285 283 282 281 281 279 276 272 270 269 267 266 265 265 266 266 265 264 262 261 261 261 260 258 257 257 257 256 257 256 256 256 256
289 287 287 286 286 285 284 283 281 281 279 277 273 271 269 267 265 264 264 265 265 265 264 262 261 260 259 258 256 255 255 255 255 255 255 255 254 253
290 289 287 287 286 286 284 282 281 280 279 277 274 271 270 268 266 263 263 263 264 264 263 261 260 259 257 256 255 254 254 253 253 254 254 254 254 253
291 290 288 287 286 285 283 282 281 280 279 277 274 270 268 267 265 262 261 262 262 261 261 259 258 257 255 254 254 253 253 253 253 254 254 253 252 252